Weather History for Columbia, SC

Change the Weather History Date:

Monday, May 26, 2014

  Actual Average Record
Temperature  
Mean Temperature 76 °F 74 °F  
Max Temperature 89 °F 86 °F 100 °F (1953)
Min Temperature 63 °F 63 °F 40 °F (1979)
Degree Days  
Heating Degree Days 0 0  
Month to date heating degree days 10 18  
Since 1 July heating degree days 2560 2549  
Cooling Degree Days 11 10  
Month to date cooling degree days 236 173  
Year to date cooling degree days 344 268  
Growing Degree Days 26 (Base 50)    
Moisture  
Dew Point 67 °F    
Average Humidity 74    
Maximum Humidity 100    
Minimum Humidity 47    
Precipitation  
Precipitation 0.00 in 0.10 in 1.56 in (1996)
Month to date precipitation 2.66 2.43  
Year to date precipitation 15.90 15.97  
Sea Level Pressure  
Sea Level Pressure 30.17 in    
Wind  
Wind Speed 5 mph (South)    
Max Wind Speed 16 mph    
Max Gust Speed 19 mph    
Visibility 6 miles    
Events Fog    
T = Trace of Precipitation, MM = Missing Value Source: NWS Daily Summary

Daily Weather History Graph

Daily Weather History Graph

Search for Another Location

Airport:

Trip Planner

Search our weather history database for the weather conditions in past years. The results will help you decide how hot, cold, wet, or windy it might be!

Date:

Astronomy

May. 26, 2014 Rise Set
Actual Time 6:16 AM EDT 8:26 PM EDT
Civil Twilight 5:48 AM EDT 8:55 PM EDT
Nautical Twilight 5:13 AM EDT 9:29 PM EDT
Astronomical Twilight 4:36 AM EDT 10:07 PM EDT
Moon 4:50 AM EDT (5/26) 6:33 PM EDT (5/26)
Length of Visible Light 15h 06m
Length of Day
14h 10m
Waning Crescent, 5% of the Moon is Illuminated
May 26
Waning Crescent
May 28
New
Jun 5
First Quarter
Jun 13
Full
Jun 19
Last Quarter

Hourly Weather History & Observations

Time (EDT) Temp. Heat Index Dew Point Humidity Pressure Visibility Wind Dir Wind Speed Gust Speed Precip Events Conditions
12:56 AM 68.0 °F - 68.0 °F 100% 30.15 in 10.0 mi East 3.5 mph - 0.00 in   Mostly Cloudy
1:56 AM 68.0 °F - 68.0 °F 100% 30.15 in 10.0 mi East 5.8 mph - N/A   Clear
2:56 AM 66.9 °F - 66.9 °F 100% 30.16 in 8.0 mi ESE 3.5 mph - N/A   Partly Cloudy
3:56 AM 66.9 °F - 66.9 °F 100% 30.16 in 8.0 mi Calm Calm - N/A   Partly Cloudy
4:56 AM 64.9 °F - 64.9 °F 100% 30.17 in 5.0 mi Calm Calm - N/A   Partly Cloudy
5:56 AM 64.9 °F - 64.9 °F 100% 30.18 in 6.0 mi Calm Calm - N/A   Partly Cloudy
6:11 AM 64.0 °F - 64.0 °F 100% 30.19 in 1.8 mi SSW 3.5 mph - N/A   Partly Cloudy
6:16 AM 63.0 °F - 63.0 °F 100% 30.19 in 1.0 mi South 3.5 mph - N/A   Mist
6:18 AM 63.0 °F - 63.0 °F 100% 30.19 in 0.5 mi South 3.5 mph - N/A Fog Fog
6:28 AM 64.0 °F - 64.0 °F 100% 30.19 in 0.2 mi South 3.5 mph - N/A Fog Fog
6:43 AM 63.0 °F - 63.0 °F 100% 30.20 in 0.2 mi Calm Calm - N/A Fog Fog
6:56 AM 64.0 °F - 64.0 °F 100% 30.19 in 0.2 mi Calm Calm - N/A Fog Fog
7:22 AM 64.9 °F - 64.9 °F 100% 30.21 in 0.2 mi Calm Calm - N/A Fog Fog
7:45 AM 64.9 °F - 64.9 °F 100% 30.22 in 0.2 mi Calm Calm - N/A Fog Fog
7:54 AM 66.2 °F - 66.2 °F 100% 30.22 in 0.8 mi Calm Calm - N/A   Mist
7:56 AM 66.0 °F - 66.0 °F 100% 30.22 in 0.5 mi Calm Calm - N/A Fog Fog
8:15 AM 66.0 °F - 66.0 °F 100% 30.22 in 1.0 mi Calm Calm - N/A   Scattered Clouds
8:51 AM 69.8 °F - 69.8 °F 100% 30.23 in 3.0 mi SSE 3.5 mph - N/A   Scattered Clouds
8:56 AM 69.1 °F - 69.1 °F 100% 30.23 in 6.0 mi Variable 3.5 mph - N/A   Scattered Clouds
9:56 AM 73.0 °F - 69.1 °F 87% 30.24 in 10.0 mi SSW 3.5 mph - N/A   Mostly Cloudy
10:56 AM 77.0 °F - 68.0 °F 74% 30.24 in 10.0 mi South 5.8 mph - N/A   Mostly Cloudy
11:56 AM 81.0 °F 83.3 °F 66.9 °F 62% 30.22 in 10.0 mi Variable 6.9 mph - N/A   Scattered Clouds
12:56 PM 82.9 °F 85.4 °F 66.9 °F 58% 30.20 in 10.0 mi Variable 5.8 mph - N/A   Mostly Cloudy
1:56 PM 84.2 °F 86.6 °F 66.2 °F 55% 30.19 in 10.0 mi SW 8.1 mph - N/A   Scattered Clouds
2:56 PM 86.0 °F 88.2 °F 66.0 °F 51% 30.15 in 10.0 mi North - - N/A   Scattered Clouds
3:56 PM 88.0 °F 90.3 °F 66.0 °F 48% 30.12 in 10.0 mi SW 10.4 mph - N/A   Scattered Clouds
4:56 PM 89.6 °F 92.2 °F 66.2 °F 46% 30.11 in 10.0 mi SSW 8.1 mph - N/A   Scattered Clouds
5:56 PM 88.0 °F 90.3 °F 66.0 °F 48% 30.09 in 10.0 mi South 9.2 mph - N/A   Scattered Clouds
6:56 PM 87.1 °F 89.2 °F 66.0 °F 49% 30.08 in 10.0 mi South 5.8 mph - N/A   Scattered Clouds
7:56 PM 82.9 °F 87.0 °F 70.0 °F 65% 30.10 in 10.0 mi South 12.7 mph - N/A   Scattered Clouds
8:56 PM 79.0 °F - 69.1 °F 72% 30.11 in 10.0 mi South 5.8 mph - N/A   Scattered Clouds
9:56 PM 77.0 °F - 70.0 °F 79% 30.13 in 10.0 mi SSW 6.9 mph - N/A   Clear
10:56 PM 75.9 °F - 70.0 °F 82% 30.14 in 10.0 mi South 8.1 mph - N/A   Clear
11:56 PM 73.9 °F - 70.0 °F 87% 30.14 in 10.0 mi SSW 4.6 mph - N/A   Clear